Погода в Уляпе

Россия / Республика Адыгея     45°03′18″N   39°56′51″E
темп.,
°C
ветер,
м/с
пор.,
м/с
влажн.,
%
обл.,
%
осадки,
мм/ч
давл.,
гПа
погр.,
м
25 мая, ср
ср2500:00+9юз35935 0.0 1016107
03:00+8юз359318 0.0 101773
06:00+9юз36915 0.0 1018136
09:00+16зюз45680 0.0 1019585
12:00+18з555512 0.6 10191634
15:00+17зсз5763100 0.8 1020843
18:00+17зюз356767 0.0 1020382
21:00+13зюз33795 0.1 102133
26 мая, чт
чт2600:00+10зюз229017 0.0 102226
03:00+9юз339279 0.0 102234
06:00+10ююз24875 0.0 102294
09:00+17юз336615 0.0 1022571
12:00+20з21495 0.0 10211566
15:00+21ссз224634 0.0 10201904
18:00+21сз115990 0.0 1019968
21:00+14зюз337191 0.0 102036
27 мая, пт
пт2700:00+11з346757 0.0 101961
03:00+12юз356551 0.0 1019119
06:00+12юз356999 0.0 1020133
09:00+15зюз377299 0.0 1020326
12:00+19з57540 0.0 1019824
15:00+22з68560 0.0 10181440
18:00+21зсз36685 0.0 1018380
21:00+15з11840 0.0 101911
28 мая, сб
сб2800:00+13ю22885 0.0 101811
03:00+12юв22885 0.0 101811
06:00+14вюв23880 0.0 101776
09:00+20вюв34640 0.0 1016509
12:00+24в33533 0.0 10151198
15:00+25в23510 0.0 10141643
18:00+24всв35670 0.0 1013199
21:00+18всв45810 0.0 101370
29 мая, вс
вс2900:00+16вюв35880 0.0 101273
03:00+15юв22890 0.0 101314
06:00+16ююз23890 0.0 101379
09:00+22з23680 0.0 1013379
12:00+26зсз23500 0.0 1014809
15:00+28сз11440 0.0 10131093
18:00+27св23600 0.0 101390
21:00+21всв33660 0.0 101428